Lapse_Rate
5.5 5.5 5.4 5.3 5.2 5.1 5.1 5.1 5.1 5.0 5.1 5.3 5.4 5.5 5.5 5.7 6.0 6.5 6.7 7.0 7.2 7.4 7.7 7.7 7.6 7.8 8.5 8.7 8.1 8.3 8.6 8.9 8.7 8.7 8.1 8.3 8.4 8.0 8.0 7.6 7.4 7.1 6.9 6.4 5.8
5.5 5.5 5.5 5.5 5.4 5.4 5.3 5.1 5.1 5.1 5.0 5.1 5.3 5.4 5.5 5.7 6.0 6.5 6.3 6.8 7.1 7.8 7.9 7.9 8.2 8.3 8.7 8.4 8.5 8.7 8.9 8.7 8.9 8.8 8.4 8.5 8.4 7.7 7.8 7.8 7.8 7.4 7.1 6.1 5.5
5.7 5.6 5.6 5.6 5.6 5.6 5.5 5.4 5.3 5.2 5.1 5.1 5.1 5.3 5.5 5.6 5.8 6.2 6.2 6.6 6.9 7.8 8.0 8.1 8.7 8.6 8.3 8.1 8.6 9.2 8.7 8.8 9.0 8.9 8.8 8.8 7.9 7.6 7.8 8.2 8.1 7.7 7.1 6.8 5.3
5.8 5.9 5.9 5.8 5.8 5.8 5.7 5.6 5.5 5.4 5.2 5.1 5.1 5.2 5.4 5.4 5.9 6.3 6.2 6.6 6.9 7.5 8.0 8.2 8.3 8.0 7.9 8.8 9.3 9.3 8.8 9.0 8.8 9.3 8.7 8.9 8.2 7.7 7.8 8.0 7.8 7.7 7.4 7.2 6.8
5.7 5.9 6.0 6.0 6.0 5.9 5.9 5.9 5.7 5.6 5.5 5.3 5.2 5.2 5.3 5.5 6.1 6.4 6.4 6.8 7.2 7.5 7.7 7.9 8.2 7.8 7.8 7.6 9.0 9.7 9.2 9.2 9.3 9.1 9.1 9.0 8.6 8.7 8.6 8.1 8.0 7.8 7.5 7.5 7.2
5.7 5.8 6.0 6.1 6.2 6.1 6.1 6.1 6.0 5.8 5.7 5.5 5.3 5.3 5.5 6.1 5.9 6.1 6.0 6.8 7.4 7.6 7.6 7.8 8.0 7.5 7.5 7.4 9.1 9.3 9.2 9.3 9.6 9.6 9.3 9.3 8.8 8.9 8.6 8.6 8.4 8.0 7.7 7.5 7.2
5.8 5.8 5.9 6.1 6.3 6.3 6.2 6.2 6.1 6.0 5.8 5.7 5.6 5.5 5.9 6.2 5.9 6.2 6.6 7.0 7.0 7.5 7.7 7.7 7.8 7.7 7.6 7.6 8.5 9.1 9.2 9.6 9.6 9.4 9.6 9.5 9.1 8.9 9.1 9.0 8.4 8.1 7.6 7.5 8.1
5.9 6.0 6.0 6.1 6.2 6.4 6.4 6.3 6.2 6.1 6.0 5.8 5.7 6.0 6.5 5.9 6.0 6.1 6.9 7.2 7.3 7.2 7.8 7.4 7.4 7.6 7.6 7.9 8.7 8.9 9.2 9.4 9.4 9.5 9.6 9.3 8.8 9.2 8.8 9.0 8.6 8.1 7.6 7.3 7.7
5.8 6.0 6.1 6.2 6.3 6.3 6.4 6.4 6.3 6.1 6.0 5.9 5.9 6.2 6.3 6.4 6.4 6.3 7.0 7.3 7.4 7.0 7.4 7.3 7.6 7.5 7.8 8.3 9.0 9.3 9.2 9.2 9.3 9.5 9.5 9.5 9.2 8.9 9.0 8.8 8.4 8.0 7.4 6.6 7.2
5.8 5.9 6.1 6.2 6.4 6.4 6.3 6.3 6.2 6.1 5.9 6.0 6.1 6.1 6.2 6.4 6.5 6.2 6.7 6.9 7.4 7.4 7.4 7.4 7.9 7.9 8.1 8.6 9.0 9.0 9.1 9.6 9.5 9.5 9.5 9.4 9.1 8.9 9.1 9.0 8.6 8.2 8.1 7.8 7.3
5.9 6.0 6.1 6.3 6.4 6.5 6.3 6.3 6.2 6.0 6.0 5.8 5.9 6.2 6.2 6.3 6.3 6.4 6.7 6.9 7.3 7.3 7.2 7.4 7.4 8.3 8.7 8.8 8.8 8.8 9.1 9.4 9.4 9.4 9.3 9.2 8.8 8.7 8.9 8.7 8.5 8.2 7.8 7.8 7.5
6.0 6.1 6.2 6.3 6.5 6.5 6.4 6.3 6.0 6.0 6.1 6.3 6.7 6.5 6.2 6.1 6.4 6.3 6.5 6.6 6.8 7.3 7.4 7.4 8.1 8.9 8.8 8.7 8.7 8.9 9.5 9.5 9.5 9.4 9.5 9.0 8.9 8.8 8.6 8.7 8.4 8.1 8.1 7.7 7.1
6.0 6.1 6.2 6.4 6.6 6.6 6.5 6.0 5.6 5.7 6.0 6.5 6.6 6.7 6.3 6.2 6.4 6.6 6.4 6.9 7.2 7.4 7.4 7.6 9.3 8.9 8.9 9.0 8.9 9.3 9.4 9.5 9.5 9.3 9.4 9.2 8.7 8.5 8.6 9.0 8.8 8.2 8.3 7.7 7.0
6.1 6.2 6.3 6.5 6.7 6.6 6.6 6.2 5.7 5.8 6.1 6.9 6.8 6.7 6.6 6.6 6.4 6.6 6.7 7.1 7.2 7.6 7.8 8.0 8.9 8.8 9.0 9.1 9.3 9.4 9.5 9.5 9.6 9.6 9.2 9.0 8.5 8.5 8.8 8.7 8.2 8.3 8.1 7.6 7.2
6.2 6.3 6.5 6.6 6.8 6.5 6.4 6.2 5.9 6.0 5.3 7.1 7.1 6.9 6.7 6.8 6.7 6.8 6.8 7.0 7.7 7.9 7.9 8.7 9.0 8.9 9.0 9.4 9.5 9.4 9.6 9.6 9.6 9.5 9.4 9.1 9.1 8.1 8.4 8.6 8.3 8.2 8.0 7.4 7.3
6.3 6.6 6.6 6.8 6.8 6.6 6.7 6.4 6.2 6.0 5.9 7.5 7.2 7.3 7.0 6.9 7.0 7.2 7.3 7.7 8.1 8.0 8.1 8.4 8.6 8.4 9.0 9.6 9.7 9.5 9.5 9.5 9.3 9.5 8.9 8.6 8.7 8.3 8.7 8.6 8.0 8.2 7.5 7.2 7.3
6.5 6.8 6.8 6.9 6.9 6.9 6.8 6.5 6.3 6.2 7.9 8.0 7.8 7.6 7.7 7.5 7.4 7.1 7.7 7.7 7.5 7.7 7.9 8.5 8.3 8.7 9.3 9.4 9.1 9.1 9.2 9.0 8.4 8.0 7.5 8.7 8.8 8.6 8.5 8.5 8.3 7.9 7.4 7.2 7.6
6.8 6.9 6.9 6.9 7.2 6.9 6.8 6.6 6.8 7.6 8.0 8.5 8.3 8.1 8.0 7.9 8.1 7.8 8.0 8.0 8.1 7.9 8.1 8.2 8.9 9.2 9.2 9.3 9.2 9.1 9.1 9.0 7.7 7.3 7.9 8.8 8.7 8.5 8.6 8.5 8.6 7.9 7.6 7.4 7.8
6.9 6.9 7.0 6.9 7.1 7.1 6.9 6.8 7.8 8.4 8.4 8.5 8.6 8.2 8.2 8.2 8.2 8.2 8.1 8.3 8.3 8.2 7.8 8.4 8.9 9.4 9.4 9.4 9.3 9.3 9.1 9.3 9.4 8.8 8.0 7.6 8.0 8.2 8.8 8.6 8.2 7.8 7.7 7.7 7.7
6.9 7.0 7.0 7.2 7.2 7.1 6.9 7.2 8.2 8.6 8.5 8.0 8.4 8.5 8.6 8.3 8.0 8.3 8.2 8.3 8.5 8.5 8.2 8.6 8.6 9.2 9.1 9.3 9.4 9.4 9.4 9.5 9.4 7.5 7.5 6.8 7.0 7.7 8.4 8.2 7.8 7.9 7.6 7.9 7.8
6.8 6.8 7.0 7.0 7.2 7.2 6.8 7.4 8.2 8.7 8.2 7.9 8.6 8.9 9.1 8.7 8.5 8.4 8.9 8.8 8.7 8.8 8.5 8.9 8.8 9.3 9.3 9.3 9.4 9.4 9.3 9.4 9.1 8.6 6.9 5.7 7.0 8.3 8.0 8.0 7.8 7.5 7.0 7.4 7.6
6.7 6.8 6.9 6.6 6.8 7.0 7.2 7.9 7.9 8.5 8.4 8.6 9.2 9.2 9.2 9.4 9.2 9.1 9.0 9.1 9.2 9.2 9.0 9.2 9.1 9.3 9.4 9.5 9.3 9.1 9.1 8.9 8.9 8.9 8.4 8.0 7.9 7.9 8.1 7.7 7.2 7.5 7.1 7.1 7.3
6.8 6.7 6.7 6.5 6.7 7.0 7.2 7.6 7.9 8.2 8.5 8.6 8.8 8.9 9.2 9.3 9.2 9.5 9.4 9.5 9.4 9.4 9.3 9.3 9.3 9.3 9.4 9.4 9.5 9.4 9.0 8.5 8.9 8.7 8.3 7.6 8.4 8.2 8.0 7.9 7.9 7.9 7.7 7.2 7.2
6.7 6.7 6.3 6.5 6.9 6.6 7.0 8.1 8.1 8.4 8.4 8.6 8.7 8.8 9.1 9.2 9.1 9.3 9.6 9.7 9.7 9.7 9.6 9.6 9.5 9.4 9.4 9.2 9.2 9.4 9.3 9.0 9.2 8.9 8.5 8.8 9.1 8.2 8.3 8.2 7.9 7.7 7.7 7.3 7.6
6.4 6.3 6.4 6.6 6.5 6.5 6.7 7.6 8.9 8.5 8.9 8.9 9.0 8.9 9.0 8.8 9.1 9.4 9.2 9.6 9.6 9.7 9.7 9.6 9.6 9.1 9.1 9.3 9.1 9.1 8.9 9.1 9.0 8.3 8.6 8.6 8.9 9.1 8.9 8.5 8.0 7.4 7.4 7.6 7.8
6.1 6.7 7.0 7.0 6.8 6.6 6.8 7.4 8.4 9.0 8.3 8.9 9.0 9.1 9.1 8.8 8.9 9.0 9.0 9.3 9.7 9.7 9.6 9.7 9.6 9.2 8.9 9.0 9.1 9.4 8.9 8.8 9.0 8.9 8.7 8.5 8.6 9.1 9.1 8.5 8.2 8.1 8.0 7.7 7.7
6.2 6.5 7.0 6.8 6.9 6.6 6.5 7.6 8.2 8.5 8.6 8.3 8.5 8.9 9.4 8.7 8.6 8.9 8.8 8.8 9.3 9.5 9.6 9.6 9.3 9.0 8.8 8.8 8.8 8.7 8.7 8.6 8.6 8.9 8.5 8.2 8.2 8.7 8.6 8.5 8.4 8.1 7.8 8.0 7.4
Wind_Speed
14 15 15 16 16 17 17 18 19 19 19 21 23 22 20 23 25 1 6 10 7 5 2 5 5 4 5 5 8 5 2 2 4 2 4 5 4 2 2 8 4 6 8 17 20
16 17 16 17 17 17 17 18 17 17 18 18 20 22 22 22 4 7 12 16 13 2 4 6 10 10 4 5 3 3 3 2 4 4 7 9 6 9 4 5 10 15 11 14 16
16 17 17 18 19 18 18 17 17 18 17 17 18 19 21 18 5 8 6 22 15 4 3 5 4 4 3 3 5 5 5 5 1 2 11 7 3 3 10 3 18 19 20 14 16
17 17 17 19 19 19 18 18 18 18 16 16 16 18 23 2 4 4 2 8 11 2 3 5 5 7 5 6 6 0 6 6 5 6 1 9 9 5 5 8 16 22 20 17 15
18 19 18 19 20 19 18 17 16 17 16 15 14 15 4 1 10 8 4 2 4 2 3 2 7 2 4 6 10 2 3 6 8 8 7 1 9 7 4 17 20 18 17 17 14
19 19 21 21 22 20 18 17 16 16 14 13 12 14 1 6 6 7 6 2 8 4 3 6 8 1 7 6 4 6 1 4 3 7 6 5 5 8 9 21 20 20 17 14 15
20 20 20 22 22 22 20 17 19 15 13 11 10 4 2 13 4 10 4 4 6 5 6 9 5 3 9 12 4 9 4 7 6 4 6 4 2 6 17 21 21 19 15 13 15
20 21 21 23 23 22 20 20 19 14 11 9 5 1 8 7 12 12 6 8 9 11 7 11 6 7 4 4 8 6 3 3 7 7 4 7 4 5 14 19 18 16 14 13 6
22 21 22 23 24 23 22 23 19 13 8 7 2 2 10 9 4 12 8 9 5 7 7 12 5 3 6 3 5 6 3 5 5 6 5 4 0 7 8 12 12 14 9 7 8
20 22 22 24 24 23 27 20 6 9 3 5 5 3 4 6 4 4 5 6 6 5 6 1 4 2 4 5 4 3 4 5 4 3 11 10 5 8 10 18 16 14 12 8 6
21 21 21 23 22 19 12 3 3 2 2 10 7 6 5 5 1 4 7 3 2 4 2 7 1 8 10 5 8 8 8 6 2 6 9 6 5 4 5 15 8 2 3 7 6
22 23 23 23 21 16 4 2 5 5 7 16 14 11 12 5 5 8 7 6 5 6 1 4 8 13 8 8 9 11 7 6 3 7 11 3 2 2 2 6 6 8 9 12 4
23 23 24 26 25 2 4 9 4 11 2 7 8 8 8 9 8 10 13 8 4 6 5 8 15 5 9 11 9 11 6 4 4 4 7 8 6 5 2 2 6 7 6 4 11
24 22 24 29 3 3 5 5 4 4 4 6 5 8 6 9 6 7 11 7 5 10 6 7 16 13 9 8 7 6 2 5 2 4 5 2 4 4 6 5 7 5 5 3 3
25 22 18 10 6 3 5 8 3 4 3 4 4 1 7 7 2 4 6 4 11 8 7 9 3 7 9 13 6 7 5 1 1 4 4 1 5 2 6 5 7 8 4 4 1
29 22 17 3 4 9 17 10 4 5 6 3 7 7 6 3 4 2 6 3 2 3 5 10 5 6 10 8 6 3 3 7 5 3 4 6 4 6 2 5 7 7 8 4 5
33 27 7 4 5 4 7 4 4 3 6 5 6 7 7 7 5 5 8 6 8 2 6 7 8 5 6 2 6 6 7 4 5 5 3 6 5 7 7 7 6 9 7 4 6
37 36 7 8 9 7 4 5 2 5 7 2 5 9 8 6 7 7 8 7 6 5 3 3 7 4 2 5 9 4 8 6 5 2 3 8 2 5 7 12 0 8 4 7 7
35 2 2 5 18 0 5 3 7 6 5 7 4 4 5 6 6 7 11 10 9 8 8 2 6 5 3 5 9 6 3 8 7 3 4 3 5 9 10 6 3 4 8 9 9
5 4 4 7 19 4 4 5 6 4 7 5 5 6 8 7 6 5 8 8 8 11 8 7 5 7 8 6 2 8 4 1 2 5 2 3 4 6 6 12 7 6 12 8 8
2 4 3 17 4 5 3 7 7 6 4 6 5 7 9 8 11 8 12 5 17 9 11 6 4 10 3 2 3 5 4 6 6 3 5 4 6 9 12 12 5 7 5 14 9
4 3 1 7 3 2 3 4 5 15 21 14 7 12 9 5 6 11 12 12 16 19 10 11 6 4 5 2 6 5 2 6 4 2 2 4 6 9 15 12 7 9 7 8 11
4 3 4 4 2 2 6 6 10 17 20 7 6 4 3 6 1 9 12 14 10 13 11 7 1 2 9 7 3 5 6 6 5 5 6 5 6 3 6 8 11 9 8 12 10
3 3 4 3 1 2 4 8 4 15 14 7 9 3 5 7 2 3 6 3 9 11 9 10 4 7 7 7 5 1 6 2 2 4 4 6 5 7 9 11 8 7 7 14 13
2 3 1 4 4 5 0 4 11 9 5 4 7 3 2 8 7 7 4 3 6 6 6 6 4 5 5 4 4 5 4 3 4 5 5 11 9 9 10 13 11 8 6 11 12
1 3 4 3 5 4 3 3 14 16 1 15 5 7 9 5 3 3 2 6 2 5 3 3 2 3 5 1 8 5 6 7 4 8 7 10 3 3 2 6 9 15 13 13 13
3 4 3 4 5 3 3 7 12 12 7 2 5 3 7 4 4 7 8 5 6 3 3 4 5 3 0 4 5 4 2 2 3 2 2 2 7 3 5 8 12 14 14 11 4
Wind_Direction
357 353 349 345 338 333 330 327 327 326 326 327 329 331 330 330 321 269 265 227 202 255 183 284 240 297 277 259 183 158 240 142 189 132 171 184 155 78 358 130 181 183 139 156 145
354 351 348 343 338 332 327 323 322 321 322 325 327 328 329 336 325 273 235 246 251 226 309 327 326 341 297 263 292 165 102 236 201 136 171 186 141 135 117 124 115 108 120 153 124
351 347 343 341 337 331 326 321 318 320 322 323 326 326 321 327 323 254 317 231 234 168 276 315 301 289 290 308 258 223 164 178 304 151 144 179 69 88 130 110 150 144 152 163 139
348 346 342 338 335 331 325 320 317 317 318 321 324 322 315 241 280 275 236 193 214 140 316 335 332 358 316 314 287 193 163 170 203 197 154 165 143 138 173 167 159 153 163 162 168
345 340 340 335 333 329 323 317 314 313 314 318 321 324 334 287 248 274 227 294 300 167 217 279 288 129 287 314 317 162 245 179 195 188 216 279 156 192 208 140 156 155 165 175 179
343 338 335 336 334 330 324 317 312 310 309 312 317 320 280 245 256 276 262 310 260 191 242 205 238 158 264 257 305 291 312 178 175 245 217 171 151 110 172 147 157 165 170 175 180
345 339 335 337 333 331 323 316 312 307 304 306 310 308 280 232 240 311 11 249 259 221 240 251 245 154 299 292 330 339 269 328 301 203 171 151 42 139 160 156 165 170 171 181 187
339 341 336 336 333 329 321 313 309 301 298 297 306 284 247 247 264 275 287 292 263 249 218 262 261 259 221 295 356 331 28 26 291 154 197 90 225 269 160 159 170 169 179 179 174
340 336 336 330 334 329 319 307 298 288 272 265 286 162 268 306 159 237 193 244 295 292 267 266 279 239 0 45 356 0 288 235 283 220 149 90 66 348 3 159 112 108 89 299 189
338 336 331 333 331 331 320 304 268 306 205 214 263 345 278 257 226 210 197 228 252 319 317 302 30 8 346 75 241 309 277 239 176 274 72 93 93 61 41 108 128 132 155 199 261
332 329 330 332 332 334 347 357 25 359 223 199 201 230 277 238 232 246 228 259 25 34 274 279 63 238 254 220 252 268 273 250 276 149 72 83 68 21 34 107 127 162 27 223 230
327 325 325 331 327 322 310 204 205 174 289 226 235 258 275 65 325 284 126 163 127 228 272 339 246 242 243 245 252 277 226 274 219 129 110 173 108 281 83 130 163 189 175 181 217
325 324 327 327 319 292 218 230 99 31 296 279 198 221 234 145 219 250 151 183 178 213 220 200 243 255 243 276 275 268 210 259 175 110 44 95 353 343 284 71 197 178 127 145 187
322 323 329 328 332 321 245 264 218 128 26 272 193 260 189 186 266 200 183 144 208 209 221 229 255 254 258 255 226 231 203 277 183 108 179 87 215 311 343 333 338 32 41 44 89
320 319 318 328 302 255 250 33 147 58 346 226 187 220 171 147 202 226 170 133 210 228 125 236 248 243 259 241 226 229 169 224 332 112 91 29 102 146 290 340 351 300 291 304 152
316 315 324 77 215 245 309 316 96 47 256 253 140 184 129 176 253 202 181 150 180 218 277 251 260 203 236 228 179 189 104 38 54 83 16 309 111 317 349 287 307 320 346 112 163
315 310 275 248 226 360 290 41 55 176 310 198 182 140 171 195 233 163 193 209 202 148 280 299 264 254 204 126 4 75 60 2 350 23 202 270 66 227 231 224 216 291 309 168 122
318 312 210 209 242 316 24 57 195 257 251 214 127 150 177 169 235 190 161 201 246 146 36 231 293 210 347 183 189 184 146 157 212 123 243 345 282 251 273 279 309 263 203 167 131
321 311 220 243 206 201 75 121 215 221 302 26 29 149 233 210 168 153 175 203 217 163 172 197 274 325 266 193 140 247 204 184 115 56 83 294 305 300 279 301 360 265 152 166 155
314 326 260 126 150 94 81 233 236 217 2 7 245 192 200 224 167 135 172 206 224 197 162 235 269 258 275 138 171 157 181 97 16 141 163 247 264 233 287 264 308 343 164 175 158
311 342 265 130 107 55 166 233 282 264 293 321 302 230 231 189 175 189 203 250 199 222 160 161 130 280 353 33 116 351 315 63 105 86 145 173 254 216 223 226 226 275 259 171 155
342 334 11 134 87 176 197 212 292 297 301 293 244 221 186 162 197 193 201 200 203 209 168 202 166 192 213 201 174 177 31 114 122 194 225 172 260 203 202 217 190 245 265 176 149
333 268 289 81 152 271 287 289 280 284 279 281 289 294 185 187 197 193 202 228 187 194 193 177 239 11 343 352 348 97 71 50 131 110 214 147 264 143 185 191 221 224 210 157 146
338 338 319 37 144 134 343 293 269 294 288 279 257 305 32 12 14 202 224 233 187 183 154 109 113 150 189 211 211 178 91 100 127 104 226 221 243 185 202 207 210 211 180 150 147
185 261 178 310 339 340 197 281 290 271 287 315 302 274 96 27 350 2 349 304 53 163 119 110 121 132 183 170 61 28 59 76 86 213 162 224 213 230 210 199 175 169 144 154 154
257 28 344 279 274 282 267 277 282 298 229 301 274 297 58 104 160 307 298 9 89 327 98 20 149 105 49 64 84 91 40 61 57 19 19 44 282 294 97 105 137 165 165 171 174
316 333 108 274 323 14 289 342 317 328 296 301 311 51 103 157 200 138 88 58 14 0 84 70 113 71 291 331 81 30 305 80 187 145 152 9 247 181 156 133 146 157 167 169 196